| time (UTC) | temp C | wind direction | speed KPH | gust KPH | rain 1hr cm | rain 24hr cm | rain mn cm | humidity % | barometer mb |
| 20260507220623 | 6 | 270 | 1.6 | 3.2 | 0.00 | 0.00 | 0.00 | 75 | 1017.6 |
| 20260507220123 | 6 | 220 | 0.0 | 0.0 | 0.00 | 0.00 | 0.00 | 75 | 1017.6 |
| 20260507215623 | 6 | 353 | 1.6 | 3.2 | 0.00 | 0.00 | 0.00 | 74 | 1017.6 |
| 20260507215123 | 6 | 274 | 0.0 | 1.6 | 0.00 | 0.00 | 0.00 | 74 | 1017.3 |
| 20260507214623 | 6 | 240 | 1.6 | 3.2 | 0.00 | 0.00 | 0.00 | 74 | 1017.6 |
| 20260507214123 | 7 | 3 | 3.2 | 3.2 | 0.00 | 0.00 | 0.00 | 74 | 1017.3 |
| 20260507213623 | 7 | 236 | 1.6 | 1.6 | 0.00 | 0.00 | 0.00 | 73 | 1017.3 |
| 20260507213124 | 7 | 223 | 0.0 | 0.0 | 0.00 | 0.00 | 0.00 | 73 | 1017.3 |
| 20260507212623 | 7 | 328 | 3.2 | 3.2 | 0.00 | 0.00 | 0.00 | 73 | 1017.3 |
| 20260507212125 | 7 | 266 | 4.8 | 4.8 | 0.00 | 0.00 | 0.00 | 73 | 1017.3 |
| 20260507211624 | 7 | 287 | 1.6 | 3.2 | 0.00 | 0.00 | 0.00 | 72 | 1017.6 |
| 20260507211123 | 7 | 19 | 4.8 | 4.8 | 0.00 | 0.00 | 0.00 | 72 | 1017.3 |
| 20260507210623 | 7 | 238 | 1.6 | 1.6 | 0.00 | 0.00 | 0.00 | 72 | 1017.3 |
| 20260507210124 | 7 | 254 | 0.0 | 1.6 | 0.00 | 0.00 | 0.00 | 72 | 1017.3 |
| 20260507205623 | 7 | 280 | 1.6 | 1.6 | 0.00 | 0.00 | 0.00 | 72 | 1017.3 |
| 20260507205123 | 7 | 213 | 1.6 | 1.6 | 0.00 | 0.00 | 0.00 | 72 | 1017.3 |
| 20260507204623 | 7 | 251 | 1.6 | 1.6 | 0.00 | 0.00 | 0.00 | 72 | 1017.3 |
| 20260507204124 | 7 | 325 | 4.8 | 4.8 | 0.00 | 0.00 | 0.00 | 72 | 1017.3 |
| 20260507203623 | 7 | 203 | 0.0 | 1.6 | 0.00 | 0.00 | 0.00 | 72 | 1016.9 |
| 20260507203124 | 7 | 212 | 0.0 | 0.0 | 0.00 | 0.00 | 0.00 | 72 | 1017.3 |
| 20260507202623 | 7 | 345 | 4.8 | 4.8 | 0.00 | 0.00 | 0.00 | 71 | 1017.3 |
| 20260507202123 | 7 | 239 | 0.0 | 1.6 | 0.00 | 0.00 | 0.00 | 71 | 1017.3 |
| 20260507201624 | 7 | 285 | 4.8 | 4.8 | 0.00 | 0.00 | 0.00 | 71 | 1016.9 |
| 20260507201124 | 7 | 338 | 3.2 | 3.2 | 0.00 | 0.00 | 0.00 | 70 | 1016.9 |
| 20260507200623 | 8 | 79 | 3.2 | 3.2 | 0.00 | 0.00 | 0.00 | 70 | 1016.9 |
| 20260507200123 | 8 | 301 | 1.6 | 3.2 | 0.00 | 0.00 | 0.00 | 70 | 1016.6 |
| 20260507195624 | 8 | 218 | 0.0 | 0.0 | 0.00 | 0.00 | 0.00 | 70 | 1016.6 |
| 20260507195123 | 8 | 337 | 6.4 | 9.7 | 0.00 | 0.00 | 0.00 | 69 | 1016.6 |
| 20260507194624 | 8 | 311 | 4.8 | 8.0 | 0.00 | 0.00 | 0.00 | 69 | 1016.6 |
| 20260507194123 | 8 | 5 | 4.8 | 4.8 | 0.00 | 0.00 | 0.00 | 69 | 1016.6 |
| 20260507193624 | 8 | 233 | 1.6 | 1.6 | 0.00 | 0.00 | 0.00 | 69 | 1016.3 |
| 20260507193123 | 8 | 230 | 0.0 | 0.0 | 0.00 | 0.00 | 0.00 | 69 | 1016.3 |
| 20260507192623 | 8 | 205 | 1.6 | 1.6 | 0.00 | 0.00 | 0.00 | 69 | 1016.3 |
| 20260507192123 | 8 | 204 | 0.0 | 0.0 | 0.00 | 0.00 | 0.00 | 69 | 1016.3 |
| 20260507191623 | 8 | 267 | 0.0 | 1.6 | 0.00 | 0.00 | 0.00 | 68 | 1016.3 |
| 20260507191124 | 8 | 251 | 1.6 | 1.6 | 0.00 | 0.00 | 0.00 | 68 | 1016.3 |
| 20260507190623 | 8 | 268 | 3.2 | 3.2 | 0.00 | 0.00 | 0.00 | 67 | 1015.9 |
| 20260507190124 | 8 | 236 | 1.6 | 3.2 | 0.00 | 0.00 | 0.00 | 67 | 1016.3 |
| 20260507185623 | 8 | 237 | 0.0 | 0.0 | 0.00 | 0.00 | 0.00 | 67 | 1015.9 |
| 20260507185123 | 9 | 14 | 3.2 | 3.2 | 0.00 | 0.00 | 0.00 | 66 | 1015.9 |
| 20260507184623 | 9 | 220 | 1.6 | 3.2 | 0.00 | 0.00 | 0.00 | 66 | 1015.9 |
| 20260507184123 | 9 | 11 | 4.8 | 4.8 | 0.00 | 0.00 | 0.00 | 66 | 1015.9 |
| 20260507183623 | 9 | 103 | 3.2 | 3.2 | 0.00 | 0.00 | 0.00 | 66 | 1015.9 |
| 20260507183124 | 9 | 341 | 4.8 | 8.0 | 0.00 | 0.00 | 0.00 | 65 | 1015.9 |
| 20260507182624 | 9 | 290 | 1.6 | 1.6 | 0.00 | 0.00 | 0.00 | 65 | 1015.9 |
| 20260507182124 | 9 | 291 | 1.6 | 1.6 | 0.00 | 0.00 | 0.00 | 65 | 1015.9 |
| 20260507181623 | 10 | 224 | 0.0 | 0.0 | 0.00 | 0.00 | 0.00 | 65 | 1015.6 |
| 20260507181123 | 10 | 224 | 0.0 | 1.6 | 0.00 | 0.00 | 0.00 | 65 | 1015.6 |
| 20260507180624 | 10 | 6 | 6.4 | 9.7 | 0.00 | 0.00 | 0.00 | 65 | 1015.6 |
| 20260507180124 | 10 | 316 | 4.8 | 4.8 | 0.00 | 0.00 | 0.00 | 65 | 1015.6 |
| 20260507175623 | 10 | 352 | 6.4 | 9.7 | 0.00 | 0.00 | 0.00 | 65 | 1015.6 |
| 20260507175125 | 10 | 280 | 6.4 | 9.7 | 0.00 | 0.00 | 0.00 | 65 | 1015.2 |
| 20260507174626 | 10 | 328 | 4.8 | 8.0 | 0.00 | 0.00 | 0.00 | 65 | 1015.6 |
| 20260507174123 | 10 | 234 | 0.0 | 0.0 | 0.00 | 0.00 | 0.00 | 65 | 1015.6 |
| 20260507173627 | 10 | 325 | 3.2 | 4.8 | 0.00 | 0.00 | 0.00 | 65 | 1015.2 |
| 20260507173124 | 10 | 6 | 3.2 | 4.8 | 0.00 | 0.00 | 0.00 | 65 | 1015.2 |
| 20260507172623 | 10 | 4 | 4.8 | 8.0 | 0.00 | 0.00 | 0.00 | 65 | 1015.2 |
| 20260507172124 | 10 | 289 | 1.6 | 1.6 | 0.00 | 0.00 | 0.00 | 65 | 1014.9 |
| 20260507171623 | 10 | 227 | 1.6 | 1.6 | 0.00 | 0.00 | 0.00 | 65 | 1015.2 |
| 20260507171123 | 10 | 19 | 4.8 | 8.0 | 0.00 | 0.00 | 0.00 | 65 | 1015.2 |
| 20260507170625 | 10 | 348 | 8.0 | 14.5 | 0.00 | 0.00 | 0.00 | 64 | 1015.2 |
| 20260507165645 | 10 | 7 | 6.4 | 9.7 | 0.00 | 0.00 | 0.00 | 64 | 1015.2 |
| 20260507165124 | 10 | 97 | 1.6 | 3.2 | 0.00 | 0.00 | 0.00 | 64 | 1014.9 |
| 20260507164623 | 10 | 326 | 3.2 | 4.8 | 0.00 | 0.00 | 0.00 | 64 | 1014.9 |
| 20260507164123 | 10 | 219 | 1.6 | 1.6 | 0.00 | 0.00 | 0.00 | 63 | 1014.9 |
| 20260507163623 | 10 | 276 | 3.2 | 3.2 | 0.00 | 0.00 | 0.00 | 63 | 1015.2 |
| 20260507163123 | 10 | 70 | 4.8 | 8.0 | 0.00 | 0.00 | 0.00 | 62 | 1015.2 |
| 20260507162623 | 11 | 359 | 6.4 | 11.3 | 0.00 | 0.00 | 0.00 | 62 | 1015.2 |
| 20260507162123 | 11 | 224 | 1.6 | 1.6 | 0.00 | 0.00 | 0.00 | 62 | 1014.9 |
| 20260507161623 | 11 | 34 | 6.4 | 9.7 | 0.00 | 0.00 | 0.00 | 62 | 1014.9 |
| 20260507161124 | 11 | 218 | 4.8 | 4.8 | 0.00 | 0.00 | 0.00 | 62 | 1014.9 |
| 20260507160624 | 11 | 295 | 6.4 | 8.0 | 0.00 | 0.00 | 0.00 | 62 | 1014.9 |
| 20260507160124 | 11 | 176 | 1.6 | 3.2 | 0.00 | 0.00 | 0.00 | 62 | 1014.9 |
| 20260507155623 | 11 | 140 | 3.2 | 3.2 | 0.00 | 0.00 | 0.00 | 62 | 1014.9 |
| 20260507155123 | 11 | 231 | 1.6 | 1.6 | 0.00 | 0.00 | 0.00 | 63 | 1014.9 |
| 20260507154624 | 11 | 65 | 1.6 | 3.2 | 0.00 | 0.00 | 0.00 | 64 | 1014.9 |
| 20260507154124 | 11 | 49 | 1.6 | 1.6 | 0.00 | 0.00 | 0.00 | 64 | 1014.9 |
| 20260507153625 | 11 | 288 | 3.2 | 3.2 | 0.00 | 0.00 | 0.00 | 64 | 1014.9 |
| 20260507153126 | 11 | 216 | 1.6 | 3.2 | 0.00 | 0.00 | 0.00 | 63 | 1014.6 |
| 20260507152623 | 11 | 351 | 9.7 | 11.3 | 0.00 | 0.00 | 0.00 | 63 | 1014.9 |
| 20260507152124 | 11 | 82 | 6.4 | 9.7 | 0.00 | 0.00 | 0.00 | 63 | 1014.6 |
| 20260507151624 | 11 | 213 | 1.6 | 1.6 | 0.00 | 0.00 | 0.00 | 63 | 1014.6 |
| 20260507151123 | 11 | 332 | 1.6 | 8.0 | 0.00 | 0.00 | 0.00 | 63 | 1014.6 |
| 20260507150623 | 11 | 354 | 8.0 | 12.9 | 0.00 | 0.00 | 0.00 | 63 | 1014.6 |
| 20260507150124 | 11 | 306 | 3.2 | 3.2 | 0.00 | 0.00 | 0.00 | 62 | 1014.2 |
| 20260507145625 | 11 | 246 | 3.2 | 3.2 | 0.00 | 0.00 | 0.00 | 63 | 1014.6 |
| 20260507145123 | 11 | 303 | 3.2 | 3.2 | 0.00 | 0.00 | 0.00 | 62 | 1014.6 |
| 20260507144624 | 11 | 76 | 6.4 | 9.7 | 0.00 | 0.00 | 0.00 | 61 | 1014.2 |
| 20260507144124 | 11 | 11 | 6.4 | 8.0 | 0.00 | 0.00 | 0.00 | 60 | 1014.2 |
| 20260507143624 | 12 | 26 | 3.2 | 4.8 | 0.00 | 0.00 | 0.00 | 59 | 1014.6 |
| 20260507143124 | 12 | 26 | 3.2 | 3.2 | 0.00 | 0.00 | 0.00 | 59 | 1014.2 |
| 20260507142624 | 12 | 265 | 1.6 | 3.2 | 0.00 | 0.00 | 0.00 | 58 | 1014.2 |
| 20260507142124 | 12 | 214 | 1.6 | 1.6 | 0.00 | 0.00 | 0.00 | 59 | 1014.6 |
| 20260507141625 | 12 | 145 | 1.6 | 3.2 | 0.00 | 0.00 | 0.00 | 58 | 1014.2 |
| 20260507141124 | 12 | 212 | 0.0 | 1.6 | 0.00 | 0.00 | 0.00 | 59 | 1014.2 |
| 20260507140624 | 12 | 85 | 3.2 | 4.8 | 0.00 | 0.00 | 0.00 | 59 | 1014.2 |
| 20260507140123 | 12 | 217 | 1.6 | 3.2 | 0.00 | 0.00 | 0.00 | 59 | 1014.2 |
| 20260507135623 | 11 | 202 | 0.0 | 1.6 | 0.00 | 0.00 | 0.00 | 59 | 1014.2 |
| 20260507135123 | 12 | 220 | 0.0 | 1.6 | 0.00 | 0.00 | 0.00 | 59 | 1014.2 |
| 20260507134625 | 12 | 201 | 4.8 | 8.0 | 0.00 | 0.00 | 0.00 | 58 | 1014.2 |
| 20260507134123 | 12 | 36 | 3.2 | 3.2 | 0.00 | 0.00 | 0.00 | 59 | 1014.2 |
| 20260507133624 | 12 | 337 | 3.2 | 4.8 | 0.00 | 0.00 | 0.00 | 59 | 1014.2 |
| 20260507133124 | 12 | 219 | 1.6 | 1.6 | 0.00 | 0.00 | 0.00 | 58 | 1014.2 |
| 20260507132624 | 11 | 159 | 4.8 | 4.8 | 0.00 | 0.00 | 0.00 | 60 | 1014.2 |
| 20260507132125 | 11 | 16 | 4.8 | 4.8 | 0.00 | 0.00 | 0.00 | 60 | 1014.2 |
| 20260507131623 | 11 | 11 | 4.8 | 8.0 | 0.00 | 0.00 | 0.00 | 60 | 1014.2 |
| 20260507131124 | 11 | 67 | 1.6 | 3.2 | 0.00 | 0.00 | 0.00 | 60 | 1014.2 |
| 20260507130625 | 11 | 73 | 3.2 | 4.8 | 0.00 | 0.00 | 0.00 | 61 | 1014.2 |
| 20260507130123 | 11 | 96 | 3.2 | 3.2 | 0.00 | 0.00 | 0.00 | 61 | 1014.2 |
| 20260507125624 | 11 | 193 | 1.6 | 3.2 | 0.00 | 0.00 | 0.00 | 62 | 1014.2 |
| 20260507125124 | 11 | 75 | 4.8 | 8.0 | 0.00 | 0.00 | 0.00 | 61 | 1013.9 |
| 20260507124624 | 11 | 117 | 3.2 | 4.8 | 0.00 | 0.00 | 0.00 | 62 | 1014.2 |
| 20260507124124 | 11 | 94 | 4.8 | 8.0 | 0.00 | 0.00 | 0.00 | 62 | 1014.2 |
| 20260507123624 | 11 | 68 | 9.7 | 9.7 | 0.00 | 0.00 | 0.00 | 62 | 1013.9 |
| 20260507123123 | 11 | 149 | 3.2 | 4.8 | 0.00 | 0.00 | 0.00 | 62 | 1013.9 |
| 20260507122623 | 11 | 44 | 4.8 | 8.0 | 0.00 | 0.00 | 0.00 | 62 | 1013.6 |
| 20260507122127 | 11 | 49 | 8.0 | 11.3 | 0.00 | 0.00 | 0.00 | 62 | 1014.2 |
| 20260507121623 | 11 | 224 | 1.6 | 1.6 | 0.00 | 0.00 | 0.00 | 62 | 1013.9 |
| 20260507121124 | 11 | 273 | 3.2 | 3.2 | 0.00 | 0.00 | 0.00 | 63 | 1013.9 |
| 20260507120623 | 11 | 95 | 3.2 | 4.8 | 0.00 | 0.00 | 0.00 | 62 | 1013.9 |
| 20260507120123 | 11 | 94 | 3.2 | 3.2 | 0.00 | 0.00 | 0.00 | 61 | 1013.9 |
| 20260507115623 | 11 | 224 | 4.8 | 8.0 | 0.00 | 0.00 | 0.00 | 61 | 1013.9 |
| 20260507115125 | 11 | 355 | 8.0 | 9.7 | 0.00 | 0.00 | 0.00 | 60 | 1013.9 |
| 20260507114623 | 11 | 8 | 6.4 | 9.7 | 0.00 | 0.00 | 0.00 | 60 | 1013.9 |
| 20260507114125 | 11 | 22 | 8.0 | 11.3 | 0.00 | 0.00 | 0.00 | 61 | 1013.9 |
| 20260507113623 | 11 | 206 | 4.8 | 8.0 | 0.00 | 0.00 | 0.00 | 62 | 1013.9 |
| 20260507113124 | 11 | 67 | 6.4 | 9.7 | 0.00 | 0.00 | 0.00 | 62 | 1013.6 |
| 20260507112623 | 11 | 199 | 0.0 | 1.6 | 0.00 | 0.00 | 0.00 | 62 | 1013.6 |
| 20260507112123 | 11 | 63 | 3.2 | 4.8 | 0.00 | 0.00 | 0.00 | 61 | 1013.9 |
| 20260507111624 | 11 | 357 | 1.6 | 3.2 | 0.00 | 0.00 | 0.00 | 63 | 1013.6 |
| 20260507111124 | 11 | 186 | 4.8 | 8.0 | 0.00 | 0.00 | 0.00 | 61 | 1013.6 |
| 20260507110624 | 11 | 85 | 8.0 | 14.5 | 0.00 | 0.00 | 0.00 | 62 | 1013.6 |
| 20260507110123 | 11 | 254 | 3.2 | 4.8 | 0.00 | 0.00 | 0.00 | 62 | 1013.6 |
| 20260507105623 | 10 | 24 | 6.4 | 8.0 | 0.00 | 0.00 | 0.00 | 63 | 1013.6 |
| 20260507105123 | 10 | 169 | 4.8 | 9.7 | 0.00 | 0.00 | 0.00 | 63 | 1013.6 |
| 20260507104623 | 10 | 283 | 3.2 | 3.2 | 0.00 | 0.00 | 0.00 | 63 | 1013.6 |
| 20260507104123 | 10 | 127 | 4.8 | 11.3 | 0.00 | 0.00 | 0.00 | 63 | 1013.6 |
| 20260507103623 | 10 | 111 | 6.4 | 9.7 | 0.00 | 0.00 | 0.00 | 63 | 1013.6 |
| 20260507103123 | 10 | 269 | 3.2 | 3.2 | 0.00 | 0.00 | 0.00 | 64 | 1013.6 |
| 20260507102623 | 10 | 40 | 8.0 | 11.3 | 0.00 | 0.00 | 0.00 | 64 | 1013.6 |
| 20260507102123 | 10 | 329 | 4.8 | 8.0 | 0.00 | 0.00 | 0.00 | 64 | 1013.6 |
| 20260507101623 | 10 | 177 | 3.2 | 4.8 | 0.00 | 0.00 | 0.00 | 64 | 1013.6 |
| 20260507101123 | 10 | 70 | 3.2 | 4.8 | 0.00 | 0.00 | 0.00 | 63 | 1013.6 |
| 20260507100624 | 10 | 49 | 11.3 | 12.9 | 0.00 | 0.00 | 0.00 | 63 | 1013.2 |
| 20260507100126 | 10 | 28 | 9.7 | 11.3 | 0.00 | 0.00 | 0.00 | 64 | 1013.2 |
| 20260507095624 | 10 | 0 | 6.4 | 8.0 | 0.00 | 0.00 | 0.00 | 65 | 1013.2 |
| 20260507095123 | 10 | 41 | 6.4 | 9.7 | 0.00 | 0.00 | 0.00 | 65 | 1012.9 |
| 20260507094623 | 10 | 87 | 1.6 | 3.2 | 0.00 | 0.00 | 0.00 | 66 | 1013.2 |
| 20260507094124 | 10 | 19 | 4.8 | 8.0 | 0.00 | 0.00 | 0.00 | 65 | 1013.2 |
| 20260507093623 | 10 | 1 | 6.4 | 9.7 | 0.00 | 0.00 | 0.00 | 65 | 1012.9 |
| 20260507093124 | 10 | 23 | 8.0 | 11.3 | 0.00 | 0.00 | 0.00 | 65 | 1013.2 |
| 20260507092623 | 10 | 232 | 6.4 | 12.9 | 0.00 | 0.00 | 0.00 | 66 | 1012.9 |
| 20260507092123 | 10 | 0 | 9.7 | 11.3 | 0.00 | 0.00 | 0.00 | 67 | 1012.9 |
| 20260507091624 | 9 | 146 | 8.0 | 12.9 | 0.00 | 0.00 | 0.00 | 67 | 1012.9 |
| 20260507091123 | 9 | 162 | 6.4 | 9.7 | 0.00 | 0.00 | 0.00 | 67 | 1012.9 |
| 20260507090623 | 10 | 83 | 8.0 | 9.7 | 0.00 | 0.00 | 0.00 | 67 | 1012.9 |
| 20260507090125 | 10 | 221 | 1.6 | 3.2 | 0.00 | 0.00 | 0.00 | 66 | 1012.9 |
| 20260507085624 | 9 | 141 | 11.3 | 14.5 | 0.00 | 0.00 | 0.00 | 67 | 1012.9 |
| 20260507085124 | 9 | 318 | 3.2 | 9.7 | 0.00 | 0.00 | 0.00 | 69 | 1012.9 |
| 20260507084624 | 9 | 37 | 9.7 | 12.9 | 0.00 | 0.00 | 0.00 | 69 | 1012.9 |
| 20260507084124 | 8 | 318 | 4.8 | 9.7 | 0.00 | 0.00 | 0.00 | 69 | 1012.5 |
| 20260507083624 | 8 | 27 | 9.7 | 16.1 | 0.00 | 0.00 | 0.00 | 69 | 1012.5 |
| 20260507083123 | 8 | 70 | 6.4 | 8.0 | 0.00 | 0.00 | 0.00 | 70 | 1012.5 |
| 20260507082624 | 8 | 54 | 6.4 | 9.7 | 0.00 | 0.00 | 0.00 | 71 | 1012.5 |
| 20260507082134 | 8 | 99 | 6.4 | 9.7 | 0.00 | 0.00 | 0.00 | 72 | 1012.5 |
| 20260507081623 | 8 | 81 | 8.0 | 9.7 | 0.00 | 0.00 | 0.00 | 73 | 1012.5 |
| 20260507081123 | 7 | 350 | 9.7 | 16.1 | 0.00 | 0.00 | 0.00 | 73 | 1012.5 |
| 20260507080623 | 7 | 321 | 9.7 | 12.9 | 0.00 | 0.00 | 0.00 | 73 | 1012.2 |
| 20260507080123 | 7 | 28 | 14.5 | 16.1 | 0.00 | 0.00 | 0.00 | 73 | 1012.5 |
| 20260507075623 | 7 | 19 | 9.7 | 12.9 | 0.00 | 0.00 | 0.00 | 73 | 1012.5 |
| 20260507075124 | 7 | 139 | 4.8 | 8.0 | 0.00 | 0.00 | 0.00 | 73 | 1012.2 |
| 20260507074623 | 7 | 15 | 4.8 | 8.0 | 0.00 | 0.00 | 0.00 | 74 | 1012.5 |
| 20260507074123 | 7 | 37 | 8.0 | 11.3 | 0.00 | 0.00 | 0.00 | 74 | 1012.2 |
| 20260507073623 | 7 | 15 | 9.7 | 12.9 | 0.00 | 0.00 | 0.00 | 74 | 1012.2 |
| 20260507073123 | 7 | 351 | 8.0 | 14.5 | 0.00 | 0.00 | 0.00 | 74 | 1012.2 |
| 20260507072623 | 7 | 14 | 14.5 | 24.1 | 0.00 | 0.00 | 0.00 | 74 | 1012.2 |
| 20260507072123 | 7 | 21 | 14.5 | 20.9 | 0.00 | 0.00 | 0.00 | 75 | 1012.2 |
| 20260507071626 | 7 | 43 | 3.2 | 4.8 | 0.00 | 0.00 | 0.00 | 75 | 1011.9 |
| 20260507071124 | 7 | 330 | 6.4 | 9.7 | 0.00 | 0.00 | 0.00 | 75 | 1011.9 |
| 20260507070623 | 7 | 345 | 8.0 | 11.3 | 0.00 | 0.00 | 0.00 | 75 | 1011.9 |
| 20260507070124 | 7 | 40 | 3.2 | 4.8 | 0.00 | 0.00 | 0.00 | 75 | 1011.9 |
| 20260507065623 | 7 | 31 | 12.9 | 14.5 | 0.00 | 0.00 | 0.00 | 74 | 1011.9 |
| 20260507065124 | 7 | 44 | 4.8 | 11.3 | 0.00 | 0.00 | 0.00 | 75 | 1011.9 |
| 20260507064623 | 7 | 154 | 1.6 | 3.2 | 0.00 | 0.00 | 0.00 | 75 | 1011.5 |
| 20260507064123 | 7 | 22 | 9.7 | 14.5 | 0.00 | 0.00 | 0.00 | 76 | 1011.5 |
| 20260507063624 | 7 | 5 | 11.3 | 16.1 | 0.00 | 0.00 | 0.00 | 76 | 1011.5 |
| 20260507063124 | 7 | 32 | 8.0 | 9.7 | 0.00 | 0.00 | 0.00 | 77 | 1011.5 |
| 20260507062624 | 7 | 12 | 8.0 | 9.7 | 0.00 | 0.00 | 0.00 | 76 | 1011.5 |
| 20260507062123 | 7 | 156 | 8.0 | 11.3 | 0.00 | 0.00 | 0.00 | 77 | 1011.5 |
| 20260507061623 | 7 | 282 | 4.8 | 8.0 | 0.00 | 0.00 | 0.00 | 77 | 1011.5 |
| 20260507061124 | 7 | 83 | 14.5 | 22.5 | 0.00 | 0.00 | 0.00 | 78 | 1011.5 |
| 20260507060623 | 7 | 82 | 8.0 | 11.3 | 0.00 | 0.00 | 0.00 | 78 | 1011.5 |
| 20260507060124 | 7 | 198 | 3.2 | 4.8 | 0.00 | 0.00 | 0.00 | 78 | 1011.5 |
| 20260507055624 | 7 | 38 | 11.3 | 16.1 | 0.00 | 0.00 | 0.00 | 78 | 1011.5 |
| 20260507055124 | 7 | 331 | 9.7 | 16.1 | 0.00 | 0.00 | 0.00 | 78 | 1011.2 |
| 20260507054623 | 7 | 36 | 8.0 | 11.3 | 0.00 | 0.00 | 0.00 | 79 | 1011.2 |
| 20260507054124 | 7 | 86 | 6.4 | 9.7 | 0.00 | 0.00 | 0.00 | 79 | 1011.2 |
| 20260507053623 | 7 | 240 | 1.6 | 3.2 | 0.00 | 0.00 | 0.00 | 80 | 1011.2 |
| 20260507053123 | 7 | 327 | 8.0 | 11.3 | 0.00 | 0.00 | 0.00 | 80 | 1011.2 |
| 20260507052623 | 7 | 186 | 4.8 | 8.0 | 0.00 | 0.00 | 0.00 | 80 | 1011.2 |
| 20260507052123 | 7 | 30 | 4.8 | 8.0 | 0.00 | 0.00 | 0.00 | 80 | 1011.2 |
| 20260507051624 | 7 | 13 | 9.7 | 12.9 | 0.00 | 0.00 | 0.00 | 79 | 1011.2 |
| 20260507051123 | 7 | 24 | 8.0 | 11.3 | 0.00 | 0.00 | 0.00 | 79 | 1011.5 |
| 20260507050623 | 7 | 51 | 9.7 | 11.3 | 0.00 | 0.00 | 0.00 | 79 | 1011.2 |
| 20260507050123 | 7 | 64 | 4.8 | 11.3 | 0.00 | 0.00 | 0.00 | 78 | 1011.2 |
| 20260507045623 | 7 | 26 | 11.3 | 14.5 | 0.00 | 0.00 | 0.00 | 78 | 1011.2 |
| 20260507045123 | 7 | 195 | 0.0 | 1.6 | 0.00 | 0.00 | 0.00 | 79 | 1011.2 |
| 20260507044624 | 7 | 48 | 11.3 | 16.1 | 0.00 | 0.00 | 0.00 | 79 | 1011.2 |
| 20260507044124 | 7 | 342 | 1.6 | 3.2 | 0.00 | 0.00 | 0.00 | 80 | 1010.8 |
| 20260507043624 | 7 | 35 | 1.6 | 3.2 | 0.00 | 0.00 | 0.00 | 80 | 1010.8 |
| 20260507043123 | 7 | 222 | 0.0 | 0.0 | 0.00 | 0.00 | 0.00 | 80 | 1010.5 |
| 20260507042624 | 7 | 220 | 1.6 | 1.6 | 0.00 | 0.00 | 0.00 | 80 | 1010.5 |
| 20260507042124 | 7 | 263 | 3.2 | 4.8 | 0.00 | 0.00 | 0.00 | 80 | 1010.2 |
| 20260507041623 | 7 | 68 | 4.8 | 8.0 | 0.00 | 0.00 | 0.00 | 80 | 1010.5 |
| 20260507041123 | 7 | 167 | 1.6 | 3.2 | 0.00 | 0.00 | 0.00 | 80 | 1010.5 |
| 20260507040626 | 7 | 175 | 1.6 | 1.6 | 0.00 | 0.00 | 0.00 | 80 | 1010.5 |
| 20260507040124 | 7 | 304 | 3.2 | 3.2 | 0.00 | 0.00 | 0.00 | 79 | 1010.2 |
| 20260507035624 | 7 | 115 | 3.2 | 8.0 | 0.00 | 0.00 | 0.00 | 79 | 1010.2 |
| 20260507035123 | 7 | 194 | 0.0 | 0.0 | 0.00 | 0.00 | 0.00 | 80 | 1010.2 |
| 20260507034623 | 7 | 48 | 9.7 | 11.3 | 0.00 | 0.00 | 0.00 | 80 | 1009.8 |
| 20260507034123 | 7 | 39 | 9.7 | 12.9 | 0.00 | 0.00 | 0.00 | 80 | 1010.2 |
| 20260507033623 | 7 | 321 | 3.2 | 3.2 | 0.00 | 0.00 | 0.00 | 81 | 1009.8 |
| 20260507033123 | 7 | 165 | 3.2 | 3.2 | 0.00 | 0.00 | 0.00 | 81 | 1009.8 |
| 20260507032634 | 7 | 9 | 3.2 | 8.0 | 0.00 | 0.00 | 0.00 | 81 | 1009.8 |
| 20260507032123 | 7 | 333 | 8.0 | 11.3 | 0.00 | 0.00 | 0.00 | 80 | 1009.8 |
| 20260507031623 | 7 | 230 | 1.6 | 1.6 | 0.00 | 0.00 | 0.00 | 80 | 1009.8 |
| 20260507031123 | 7 | 356 | 4.8 | 8.0 | 0.00 | 0.00 | 0.00 | 80 | 1009.8 |
| 20260507030625 | 7 | 331 | 3.2 | 3.2 | 0.00 | 0.00 | 0.00 | 80 | 1009.8 |
| 20260507030123 | 7 | 45 | 9.7 | 11.3 | 0.00 | 0.00 | 0.00 | 80 | 1009.8 |
| 20260507025623 | 7 | 53 | 3.2 | 8.0 | 0.00 | 0.00 | 0.00 | 80 | 1009.8 |
| 20260507025124 | 6 | 8 | 3.2 | 4.8 | 0.00 | 0.00 | 0.00 | 81 | 1009.8 |
| 20260507024626 | 6 | 10 | 6.4 | 9.7 | 0.00 | 0.00 | 0.00 | 81 | 1009.5 |
| 20260507024123 | 6 | 102 | 3.2 | 4.8 | 0.00 | 0.00 | 0.00 | 81 | 1009.8 |
| 20260507023626 | 6 | 182 | 1.6 | 1.6 | 0.00 | 0.00 | 0.00 | 81 | 1009.8 |
| 20260507023124 | 6 | 210 | 1.6 | 1.6 | 0.00 | 0.00 | 0.00 | 81 | 1009.8 |
| 20260507022623 | 6 | 223 | 0.0 | 1.6 | 0.00 | 0.00 | 0.00 | 81 | 1009.5 |
| 20260507021653 | 6 | 340 | 1.6 | 1.6 | 0.00 | 0.00 | 0.00 | 80 | 1009.5 |
| 20260507021123 | 6 | 193 | 1.6 | 3.2 | 0.00 | 0.00 | 0.00 | 81 | 1009.5 |
| 20260507020624 | 6 | 50 | 6.4 | 8.0 | 0.00 | 0.00 | 0.00 | 81 | 1009.5 |
| 20260507020123 | 6 | 107 | 8.0 | 9.7 | 0.00 | 0.00 | 0.00 | 81 | 1009.5 |
| 20260507015623 | 6 | 175 | 0.0 | 1.6 | 0.00 | 0.00 | 0.00 | 81 | 1009.1 |
| 20260507015125 | 6 | 185 | 4.8 | 9.7 | 0.00 | 0.00 | 0.00 | 81 | 1009.5 |
| 20260507014623 | 6 | 19 | 4.8 | 12.9 | 0.00 | 0.00 | 0.00 | 81 | 1009.1 |
| 20260507014123 | 6 | 52 | 4.8 | 9.7 | 0.00 | 0.00 | 0.00 | 81 | 1009.5 |
| 20260507013139 | 6 | 137 | 3.2 | 3.2 | 0.00 | 0.00 | 0.00 | 81 | 1009.1 |
| 20260507012624 | 6 | 86 | 6.4 | 9.7 | 0.00 | 0.00 | 0.00 | 81 | 1009.1 |
| 20260507012123 | 6 | 40 | 8.0 | 9.7 | 0.00 | 0.00 | 0.00 | 81 | 1009.1 |
| 20260507011624 | 6 | 7 | 8.0 | 11.3 | 0.00 | 0.00 | 0.00 | 81 | 1009.1 |
| 20260507011123 | 6 | 61 | 9.7 | 14.5 | 0.00 | 0.00 | 0.00 | 81 | 1009.5 |
| 20260507010623 | 6 | 50 | 8.0 | 11.3 | 0.00 | 0.00 | 0.00 | 82 | 1009.1 |
| 20260507010123 | 6 | 309 | 1.6 | 3.2 | 0.00 | 0.00 | 0.00 | 82 | 1009.1 |
| 20260507005623 | 6 | 69 | 8.0 | 9.7 | 0.00 | 0.00 | 0.00 | 82 | 1009.1 |
| 20260507005124 | 6 | 192 | 0.0 | 1.6 | 0.00 | 0.00 | 0.00 | 82 | 1008.8 |
| 20260507004624 | 6 | 159 | 3.2 | 4.8 | 0.00 | 0.00 | 0.00 | 82 | 1009.1 |
| 20260507004123 | 6 | 8 | 4.8 | 4.8 | 0.00 | 0.00 | 0.00 | 81 | 1008.8 |
| 20260507003625 | 6 | 9 | 3.2 | 4.8 | 0.00 | 0.00 | 0.00 | 81 | 1008.8 |
| 20260507003123 | 6 | 27 | 8.0 | 9.7 | 0.00 | 0.00 | 0.00 | 81 | 1008.8 |
| 20260507002624 | 7 | 134 | 3.2 | 4.8 | 0.00 | 0.00 | 0.00 | 81 | 1008.8 |
| 20260507002126 | 7 | 68 | 9.7 | 12.9 | 0.00 | 0.00 | 0.00 | 81 | 1009.1 |
| 20260507001623 | 7 | 346 | 4.8 | 4.8 | 0.00 | 0.00 | 0.00 | 81 | 1009.1 |
| 20260507001123 | 7 | 168 | 3.2 | 4.8 | 0.00 | 0.00 | 0.00 | 81 | 1009.1 |
| 20260507000623 | 7 | 53 | 6.4 | 9.7 | 0.00 | 0.00 | 0.00 | 81 | 1009.1 |
| 20260507000124 | 7 | 32 | 4.8 | 8.0 | 0.00 | 0.00 | 0.00 | 81 | 1009.1 |
| 20260506235624 | 7 | 37 | 4.8 | 8.0 | 0.00 | 0.00 | 0.00 | 81 | 1009.1 |
| 20260506235124 | 7 | 328 | 3.2 | 4.8 | 0.00 | 0.00 | 0.00 | 81 | 1008.8 |
| 20260506234625 | 7 | 36 | 6.4 | 8.0 | 0.00 | 0.00 | 0.00 | 81 | 1009.1 |
| 20260506234123 | 7 | 89 | 4.8 | 8.0 | 0.00 | 0.00 | 0.00 | 81 | 1008.8 |
| 20260506233623 | 7 | 349 | 4.8 | 4.8 | 0.00 | 0.00 | 0.00 | 81 | 1008.8 |
| 20260506233124 | 7 | 25 | 4.8 | 9.7 | 0.00 | 0.00 | 0.00 | 81 | 1008.8 |
| 20260506232624 | 7 | 30 | 6.4 | 9.7 | 0.00 | 0.00 | 0.00 | 81 | 1008.8 |
| 20260506232124 | 7 | 40 | 6.4 | 11.3 | 0.00 | 0.00 | 0.00 | 81 | 1008.8 |
| 20260506231624 | 6 | 54 | 8.0 | 11.3 | 0.00 | 0.00 | 0.00 | 81 | 1008.8 |
| 20260506231123 | 7 | 44 | 4.8 | 8.0 | 0.00 | 0.00 | 0.00 | 82 | 1008.8 |
| 20260506230623 | 6 | 34 | 3.2 | 3.2 | 0.00 | 0.00 | 0.00 | 81 | 1008.5 |
| 20260506230123 | 7 | 214 | 3.2 | 4.8 | 0.00 | 0.00 | 0.00 | 81 | 1008.8 |
| 20260506225623 | 7 | 84 | 6.4 | 11.3 | 0.00 | 0.00 | 0.00 | 81 | 1008.8 |
| 20260506225123 | 7 | 4 | 4.8 | 8.0 | 0.00 | 0.00 | 0.00 | 81 | 1008.5 |
| 20260506224623 | 7 | 217 | 8.0 | 12.9 | 0.00 | 0.00 | 0.00 | 81 | 1008.8 |
| 20260506224123 | 7 | 128 | 6.4 | 9.7 | 0.00 | 0.00 | 0.00 | 81 | 1008.5 |
| 20260506223623 | 6 | 116 | 4.8 | 8.0 | 0.00 | 0.00 | 0.00 | 81 | 1008.5 |
| 20260506223123 | 7 | 206 | 3.2 | 3.2 | 0.00 | 0.00 | 0.00 | 81 | 1008.5 |
| 20260506222623 | 7 | 22 | 6.4 | 9.7 | 0.00 | 0.00 | 0.00 | 81 | 1008.5 |
| 20260506222124 | 7 | 90 | 9.7 | 11.3 | 0.00 | 0.00 | 0.00 | 81 | 1008.5 |
| 20260506221623 | 7 | 71 | 4.8 | 4.8 | 0.00 | 0.00 | 0.00 | 82 | 1008.5 |
| 20260506221123 | 7 | 82 | 4.8 | 8.0 | 0.00 | 0.00 | 0.00 | 82 | 1008.5 |